Date_and_time,latitude,longitude,wind_speed,RelWindDirFrom,WindDirFrom,air_pressure,air_temperature,relative_humidity,Temp,platform_speed_wrt_ground,air_pressure_at_mean_sea_level,platform_orientation
2019-11-20 23:40,50.6304516666667,-96.9807733333333,5.9,8.8,324,992.65,-6.6,78,1.17,0.0,1021.25,270.0
2019-11-20 23:50,50.6304516666667,-96.9807733333333,4.9,7.0,318,992.76,-6.7,79,1.17,0.0,1021.38,270.0
2019-11-21 00:00,50.63045,-96.9807716666667,5.1,7.2,317,992.66,-6.8,80,1.16,0.0,1021.28,347.4
2019-11-21 00:10,50.63045,-96.9807716666667,5.8,8.3,317,992.66,-6.8,78,1.16,0.0,1021.29,347.4
2019-11-21 00:20,50.63045,-96.9807716666667,6.3,9.4,318,992.68,-6.7,76,1.17,0.0,1021.30,347.4
2019-11-21 00:30,50.63045,-96.9807716666667,6.4,8.9,322,992.72,-6.7,73,1.16,0.0,1021.36,347.4
2019-11-21 00:40,50.6304483333333,-96.98077,7.2,9.6,322,992.84,-6.9,72,1.16,0.0,1021.50,347.4
2019-11-21 00:50,50.6304483333333,-96.98077,6.8,9.6,324,992.85,-7.0,73,1.16,0.0,1021.53,347.4
2019-11-21 01:00,50.6304366666667,-96.980765,6.8,9.9,325,992.85,-7.1,73,1.16,0.0,1021.54,156.5
2019-11-21 01:10,50.630445,-96.980775,6.4,10.0,331,992.85,-7.1,74,1.16,0.0,1021.56,156.5
2019-11-21 01:20,50.6304466666667,-96.980765,7.9,12.4,332,992.84,-7.1,74,1.16,0.0,1021.56,156.5
2019-11-21 01:30,50.6304483333333,-96.9807683333333,9.3,13.1,343,992.81,-7.2,74,1.16,0.0,1021.55,156.5
2019-11-21 01:40,50.6304466666667,-96.9807666666667,9.2,12.4,349,992.98,-7.4,74,1.16,0.0,1021.74,156.5
2019-11-21 01:50,50.6304466666667,-96.980765,8.4,11.1,346,992.95,-7.5,74,1.17,0.0,1021.72,156.5
2019-11-21 02:00,50.6304466666667,-96.980765,7.7,10.0,350,992.92,-7.6,74,1.17,0.0,1021.69,167.4
2019-11-21 02:10,50.6304466666667,-96.9807633333333,8.3,11.0,345,992.94,-7.7,74,1.15,0.0,1021.71,167.4
2019-11-21 02:20,50.6304483333333,-96.9807666666667,8.5,11.2,343,993.04,-7.8,74,1.15,0.0,1021.83,167.4
2019-11-21 02:30,50.6304483333333,-96.9807683333333,8.9,11.7,347,993.15,-7.8,74,1.14,0.0,1021.94,167.4
2019-11-21 02:40,50.6304483333333,-96.980775,9.6,11.9,351,993.25,-7.7,73,1.14,0.0,1022.06,167.4
2019-11-21 02:50,50.6304466666667,-96.9807683333333,8.6,11.1,352,993.38,-7.7,74,1.13,0.0,1022.18,167.4
2019-11-21 03:00,50.6304483333333,-96.98077,9.3,11.8,348,993.35,-7.7,74,1.13,0.0,1022.16,167.4
2019-11-21 03:10,50.630445,-96.9807666666667,10.6,13.5,356,993.43,-7.8,75,1.13,0.0,1022.24,167.4
2019-11-21 03:20,50.6304466666667,-96.9807683333333,9.8,13.0,357,993.46,-7.8,76,1.13,0.0,1022.28,167.4
2019-11-21 03:30,50.6304633333333,-96.980825,9.0,11.9,342,993.42,-7.9,75,1.13,0.0,1022.26,167.4
2019-11-21 03:40,50.6304616666667,-96.9807833333333,8.4,11.7,337,993.44,-7.9,74,1.15,0.0,1022.29,167.4
2019-11-21 03:50,50.6304583333333,-96.98077,8.4,11.8,334,993.60,-8.0,74,1.16,0.0,1022.46,167.4
2019-11-21 04:00,50.6304566666667,-96.98075,9.1,13.6,317,993.73,-8.2,74,1.16,0.0,1022.61,32.5
2019-11-21 04:10,50.6304583333333,-96.9807633333333,9.7,14.2,331,993.73,-8.4,74,1.16,0.0,1022.63,32.5
2019-11-21 04:20,50.6304566666667,-96.9807583333333,8.9,13.0,322,993.71,-8.6,74,1.16,0.0,1022.62,32.5
2019-11-21 04:30,50.630455,-96.98076,7.4,10.6,317,993.78,-8.7,73,1.16,0.0,1022.69,32.5
2019-11-21 04:40,50.630455,-96.9807616666667,7.7,10.9,309,993.69,-8.8,74,1.17,0.0,1022.60,32.5
2019-11-21 04:50,50.6304533333333,-96.9807616666667,6.5,9.3,307,993.72,-8.8,75,1.17,0.0,1022.64,32.5
2019-11-21 05:00,50.6304583333333,-96.9807633333333,9.2,13.6,327,993.73,-8.9,79,1.19,0.0,1022.65,360.0
2019-11-21 05:10,50.6304533333333,-96.9807583333333,12.0,15.7,348,993.64,-9.0,78,1.18,0.0,1022.57,360.0
2019-11-21 05:20,50.63045,-96.9807566666667,12.2,15.4,354,993.66,-9.0,77,1.17,0.0,1022.59,360.0
2019-11-21 05:30,50.63045,-96.9807566666667,10.7,15.2,345,993.77,-9.2,76,1.17,0.0,1022.72,360.0
2019-11-21 05:40,50.6304416666667,-96.9807316666667,9.4,11.7,340,993.88,-9.2,74,1.16,0.0,1022.83,360.0
2019-11-21 05:50,50.6304516666667,-96.9807616666667,9.2,14.3,331,993.85,-9.4,73,1.15,0.0,1022.83,360.0
2019-11-21 06:00,50.6304433333333,-96.9807633333333,7.8,11.8,328,993.87,-9.5,73,1.15,0.0,1022.87,360.0
2019-11-21 06:10,50.630445,-96.9807516666667,6.8,10.4,311,993.88,-9.5,73,1.14,0.0,1022.88,360.0
2019-11-21 06:20,50.63045,-96.9807616666667,5.9,8.6,312,993.87,-9.5,74,1.14,0.0,1022.88,360.0
2019-11-21 06:30,50.6304533333333,-96.9807633333333,5.4,7.4,307,993.93,-9.4,75,1.15,0.0,1022.94,360.0
2019-11-21 06:40,50.6304516666667,-96.9807633333333,5.3,8.2,308,993.92,-9.4,76,1.16,0.0,1022.93,360.0
2019-11-21 06:50,50.63045,-96.9807633333333,6.0,9.2,306,993.84,-9.4,76,1.16,0.0,1022.85,360.0
2019-11-21 07:00,50.63045,-96.9807633333333,5.6,8.2,307,993.77,-9.5,76,1.17,0.0,1022.79,270.0
2019-11-21 07:10,50.63045,-96.980765,5.6,7.6,308,993.64,-9.5,77,1.18,0.0,1022.67,270.0
2019-11-21 07:20,50.63045,-96.9807633333333,5.0,7.7,320,993.54,-9.4,78,1.19,0.0,1022.57,270.0
2019-11-21 07:30,50.63045,-96.980765,5.0,8.4,318,993.55,-9.3,78,1.19,0.0,1022.57,270.0
2019-11-21 07:40,50.6304416666667,-96.980775,6.5,9.9,329,993.42,-9.2,78,1.19,0.0,1022.44,270.0
2019-11-21 07:50,50.6304383333333,-96.9807433333333,7.1,10.6,330,993.35,-9.3,79,1.19,0.0,1022.38,270.0
2019-11-21 08:00,50.6304483333333,-96.9807583333333,7.5,10.7,327,993.29,-9.3,79,1.20,0.0,1022.31,165.5
2019-11-21 08:10,50.6304416666667,-96.980755,6.3,10.2,327,993.33,-9.2,80,1.20,0.0,1022.35,165.5
2019-11-21 08:20,50.6304583333333,-96.9807466666667,6.6,11.1,326,993.31,-9.3,80,1.19,0.0,1022.34,165.5
2019-11-21 08:30,50.6304566666667,-96.980775,8.3,12.5,330,993.29,-9.3,81,1.19,0.0,1022.31,165.5
2019-11-21 08:40,50.6304516666667,-96.9807733333333,8.5,11.5,328,993.37,-9.3,80,1.17,0.0,1022.40,165.5
2019-11-21 08:50,50.6304533333333,-96.9807716666667,8.8,13.4,326,993.46,-9.4,78,1.16,0.0,1022.50,165.5
2019-11-21 09:00,50.6304516666667,-96.9807683333333,7.0,10.4,329,993.60,-9.4,78,1.16,0.0,1022.64,360.0
2019-11-21 09:10,50.6304533333333,-96.9807683333333,6.1,9.3,320,993.51,-9.5,79,1.17,0.0,1022.54,360.0
2019-11-21 09:20,50.6304516666667,-96.9807683333333,7.6,10.9,315,993.47,-9.5,81,1.17,0.0,1022.51,360.0
2019-11-21 09:30,50.63045,-96.98077,5.6,11.4,313,993.54,-9.5,82,1.17,0.0,1022.58,360.0
2019-11-21 09:40,50.630445,-96.9807466666667,6.5,9.7,315,993.55,-9.5,81,1.16,0.0,1022.58,360.0
2019-11-21 09:50,50.630445,-96.9807566666667,6.8,9.8,311,993.64,-9.5,81,1.14,0.0,1022.67,360.0
2019-11-21 10:00,50.630445,-96.9807616666667,7.4,10.3,308,993.70,-9.5,81,1.13,0.0,1022.73,360.0
2019-11-21 10:10,50.6304466666667,-96.9807633333333,7.6,12.8,314,993.72,-9.5,81,1.12,0.0,1022.76,360.0
2019-11-21 10:20,50.6304433333333,-96.98077,7.6,10.2,313,993.80,-9.5,81,1.13,0.0,1022.85,360.0
2019-11-21 10:30,50.6304616666667,-96.9808,7.4,10.9,310,993.85,-9.5,81,1.12,0.0,1022.89,360.0
2019-11-21 10:40,50.6304516666667,-96.9807883333333,8.6,13.6,310,993.88,-9.6,80,1.13,0.0,1022.93,360.0
2019-11-21 10:50,50.6304483333333,-96.9807816666667,6.7,11.7,318,993.90,-9.6,80,1.14,0.0,1022.95,360.0
2019-11-21 11:00,50.6304466666667,-96.9807783333333,5.8,7.8,308,993.75,-9.6,80,1.14,0.0,1022.81,270.0
2019-11-21 11:10,50.6304483333333,-96.9807783333333,6.5,10.7,310,993.73,-9.6,80,1.15,0.0,1022.79,270.0
2019-11-21 11:20,50.63043,-96.980785,6.7,10.5,313,993.93,-9.6,80,1.16,0.0,1023.00,270.0
2019-11-21 11:30,50.630435,-96.9807716666667,6.8,10.5,309,993.98,-9.7,80,1.16,0.0,1023.04,270.0
2019-11-21 11:40,50.6304366666667,-96.980775,8.7,12.5,313,993.89,-9.7,80,1.16,0.0,1022.96,270.0
2019-11-21 11:50,50.6304416666667,-96.980775,6.9,10.3,312,993.86,-9.7,81,1.17,0.0,1022.92,270.0
2019-11-21 12:00,50.6304166666667,-96.9807866666667,6.7,10.2,313,993.76,-9.7,81,1.17,0.0,1022.82,190.2
2019-11-21 12:10,50.6304583333333,-96.9807783333333,6.5,9.6,315,993.86,-9.7,81,1.18,0.0,1022.93,190.2
2019-11-21 12:20,50.630445,-96.980765,6.8,11.3,315,993.90,-9.8,81,1.18,0.0,1022.97,190.2
2019-11-21 12:30,50.6304416666667,-96.9807666666667,6.4,11.1,314,993.90,-9.8,81,1.18,0.0,1022.97,190.2
2019-11-21 12:40,50.63044,-96.9807666666667,7.8,10.5,314,993.84,-9.8,80,1.18,0.0,1022.91,190.2
2019-11-21 12:50,50.630435,-96.980775,7.1,9.9,316,993.85,-9.8,81,1.17,0.0,1022.93,190.2
2019-11-21 13:00,50.6304333333333,-96.9807733333333,7.4,11.3,309,993.91,-9.8,80,1.16,0.0,1022.99,228.3
2019-11-21 13:10,50.6304383333333,-96.9807816666667,6.8,10.5,314,994.01,-9.8,80,1.13,0.0,1023.09,228.3
2019-11-21 13:20,50.6304433333333,-96.9807716666667,7.3,10.3,311,994.08,-9.8,80,1.13,0.0,1023.17,228.3
2019-11-21 13:30,50.6304416666667,-96.9807666666667,7.9,12.4,310,994.18,-9.8,80,1.12,0.0,1023.27,228.3
2019-11-21 13:40,50.6304416666667,-96.980765,6.9,10.4,311,994.34,-9.8,81,1.12,0.0,1023.44,228.3
2019-11-21 13:50,50.6304433333333,-96.9807733333333,7.9,11.7,312,994.37,-9.8,80,1.12,0.0,1023.47,228.3
2019-11-21 14:00,50.6304466666667,-96.9807766666667,9.0,13.7,312,994.40,-9.8,80,1.13,0.0,1023.50,90.0
2019-11-21 14:10,50.630445,-96.980775,7.2,11.3,313,994.39,-9.8,80,1.13,0.0,1023.49,90.0
2019-11-21 14:20,50.6304466666667,-96.9807766666667,7.3,12.5,315,994.41,-9.7,80,1.12,0.0,1023.51,90.0
2019-11-21 14:30,50.63044,-96.9807633333333,6.9,10.7,309,994.42,-9.7,80,1.12,0.0,1023.52,90.0
2019-11-21 14:40,50.6304116666667,-96.9807733333333,6.7,9.6,315,994.45,-9.7,80,1.12,0.0,1023.55,90.0
2019-11-21 14:50,50.6304366666667,-96.9807816666667,7.1,10.9,308,994.41,-9.6,80,1.12,0.0,1023.51,90.0
2019-11-21 15:00,50.6304383333333,-96.980775,8.5,12.3,309,994.40,-9.6,79,1.12,0.0,1023.50,8.4
2019-11-21 15:10,50.63044,-96.98077,8.1,12.7,311,994.34,-9.6,79,1.12,0.0,1023.43,8.4
2019-11-21 15:20,50.63044,-96.980765,8.9,13.7,307,994.37,-9.5,79,1.11,0.0,1023.45,8.4
2019-11-21 15:30,50.63044,-96.9807633333333,7.9,11.3,315,994.45,-9.4,78,1.10,0.0,1023.53,8.4
2019-11-21 15:40,50.63044,-96.980765,7.8,12.7,323,994.49,-9.3,79,1.10,0.0,1023.57,8.4
2019-11-21 15:50,50.63044,-96.980765,7.2,12.0,314,994.52,-9.2,78,1.09,0.0,1023.59,8.4
2019-11-21 16:00,50.6304383333333,-96.9807816666667,7.2,12.3,314,994.53,-9.2,78,1.09,0.0,1023.61,323.4
2019-11-21 16:10,50.6304416666667,-96.9807766666667,6.7,9.7,315,994.59,-9.1,78,1.09,0.0,1023.66,323.4
2019-11-21 16:20,50.6304366666667,-96.980765,7.0,10.8,312,994.46,-9.0,77,1.08,0.0,1023.52,323.4
2019-11-21 16:30,50.63044,-96.980775,7.0,9.7,316,994.34,-8.9,77,1.08,0.0,1023.39,323.4
2019-11-21 16:40,50.6304383333333,-96.9807733333333,6.3,9.5,317,994.45,-8.8,77,1.07,0.0,1023.49,323.4
2019-11-21 16:50,50.63044,-96.9807716666667,7.3,9.9,317,994.32,-8.7,75,1.07,0.0,1023.35,323.4
2019-11-21 17:00,50.63044,-96.98077,5.2,8.1,314,994.42,-8.6,76,1.06,0.0,1023.45,131.7
2019-11-21 17:10,50.6304433333333,-96.9807683333333,6.4,9.7,303,994.38,-8.6,76,1.05,0.0,1023.41,131.7
2019-11-21 17:20,50.6304416666667,-96.9807683333333,6.1,9.8,289,994.38,-8.5,75,1.05,0.0,1023.39,131.7
2019-11-21 17:30,50.6304416666667,-96.9807683333333,6.4,9.0,298,994.49,-8.5,74,1.05,0.0,1023.49,131.7
2019-11-21 17:40,50.6304433333333,-96.9807666666667,6.7,10.0,303,994.42,-8.4,73,1.04,0.0,1023.41,131.7
2019-11-21 17:50,50.6304433333333,-96.9807666666667,6.5,10.2,311,994.42,-8.3,73,1.04,0.0,1023.41,131.7
2019-11-21 18:00,50.6304433333333,-96.9807666666667,5.9,9.7,296,994.32,-8.1,72,1.04,0.0,1023.29,90.0
2019-11-21 18:10,50.630445,-96.9807666666667,6.3,10.9,301,994.18,-7.8,70,1.04,0.0,1023.12,90.0
2019-11-21 18:20,50.630445,-96.9807683333333,6.6,9.5,308,994.26,-7.6,70,1.03,0.0,1023.19,90.0
2019-11-21 18:30,50.6304516666667,-96.9807716666667,5.7,10.3,300,994.19,-7.4,69,1.03,0.0,1023.09,90.0
2019-11-21 18:40,50.63045,-96.9807616666667,5.5,9.7,307,994.08,-7.1,68,1.02,0.0,1022.96,90.0
2019-11-21 18:50,50.63045,-96.98076,5.2,9.0,302,994.09,-7.1,67,1.02,0.0,1022.97,90.0
2019-11-21 19:00,50.6304483333333,-96.9807566666667,5.6,9.6,302,994.00,-7.0,66,1.02,0.0,1022.87,73.2
2019-11-21 19:10,50.6304483333333,-96.9807583333333,5.3,9.7,296,993.90,-6.8,65,1.02,0.0,1022.76,73.2
2019-11-21 19:20,50.6304383333333,-96.9807666666667,6.1,9.4,310,993.92,-6.7,65,1.02,0.0,1022.77,73.2
2019-11-21 19:30,50.6304433333333,-96.9807733333333,5.2,12.6,285,994.09,-6.5,65,1.02,0.0,1022.93,73.2
2019-11-21 19:40,50.6304466666667,-96.9807733333333,5.4,9.9,286,994.03,-6.2,63,1.01,0.0,1022.84,73.2
2019-11-21 19:50,50.6304266666667,-96.98078,5.5,8.5,290,993.94,-6.1,63,1.00,0.0,1022.74,73.2
2019-11-21 20:00,50.6304383333333,-96.98077,4.0,7.2,295,993.93,-5.9,61,1.00,0.0,1022.69,0.0
2019-11-21 20:10,50.63044,-96.9807733333333,5.5,9.1,293,993.80,-5.9,62,1.00,0.0,1022.56,0.0
2019-11-21 20:20,50.6304383333333,-96.9807683333333,4.9,9.1,275,993.68,-5.7,61,0.99,0.0,1022.40,0.0
2019-11-21 20:30,50.6304383333333,-96.980765,5.5,9.3,295,993.63,-5.6,61,0.99,0.0,1022.33,0.0
2019-11-21 20:40,50.63044,-96.9807633333333,5.3,9.0,288,993.54,-5.7,61,0.99,0.0,1022.25,0.0
2019-11-21 20:50,50.63044,-96.980785,5.2,8.1,284,993.55,-5.7,61,0.99,0.0,1022.24,0.0
2019-11-21 21:00,50.630455,-96.980775,5.1,7.8,254,993.53,-5.7,60,0.99,0.0,1022.22,345.5
2019-11-21 21:10,50.6304483333333,-96.9807716666667,4.0,6.4,251,993.35,-5.6,60,0.99,0.0,1022.02,345.5
2019-11-21 21:20,50.6304466666667,-96.9807683333333,5.1,6.8,253,993.38,-5.7,61,0.98,0.0,1022.05,345.5
2019-11-21 21:30,50.6304316666667,-96.9807566666667,4.9,7.1,221,993.34,-5.8,62,0.98,0.0,1021.99,345.5
2019-11-21 21:40,50.630435,-96.9807566666667,6.2,8.4,230,993.33,-5.9,63,0.98,0.0,1021.99,345.5
2019-11-21 21:50,50.63044,-96.98076,5.7,8.4,238,993.31,-6.0,63,0.97,0.0,1021.95,345.5
2019-11-21 22:00,50.6304466666667,-96.980765,5.4,7.8,229,993.38,-6.1,63,0.97,0.0,1022.03,270.0
2019-11-21 22:10,50.630445,-96.9807583333333,6.1,8.4,222,993.47,-6.5,66,0.98,0.0,1022.14,270.0
2019-11-21 22:20,50.630445,-96.98076,5.9,7.7,220,993.50,-6.8,67,0.98,0.0,1022.18,270.0
2019-11-21 22:30,50.630445,-96.9807633333333,5.7,7.6,222,993.49,-7.2,68,0.98,0.0,1022.20,270.0
2019-11-21 22:40,50.630445,-96.980765,5.8,7.9,222,993.49,-7.6,70,0.97,0.0,1022.23,270.0
2019-11-21 22:50,50.630445,-96.980765,5.7,8.5,218,993.55,-8.0,73,0.97,0.0,1022.30,270.0
2019-11-21 23:00,50.630445,-96.9807666666667,5.3,6.8,219,993.59,-8.2,74,0.96,0.0,1022.35,90.0
2019-11-21 23:10,50.630445,-96.9807666666667,5.3,6.6,216,993.70,-8.4,75,0.96,0.0,1022.48,90.0
2019-11-21 23:20,50.6304466666667,-96.9807683333333,5.4,7.0,211,993.62,-8.6,76,0.96,0.0,1022.41,90.0
2019-11-21 23:30,50.6304466666667,-96.9807683333333,5.8,7.0,207,993.58,-8.9,78,0.96,0.0,1022.39,90.0
2019-11-21 23:40,50.6304466666667,-96.9807683333333,6.1,7.8,207,993.62,-9.1,79,0.95,0.0,1022.45,90.0
2019-11-21 23:50,50.6304483333333,-96.9807683333333,5.3,7.0,212,993.62,-9.2,79,0.95,0.0,1022.46,90.0
